| time (UTC) | temp F | wind direction | speed MPH | gust MPH | rain 1hr in | rain 24hr in | rain mn in | humidity % | barometer mb |
| 20260510030037 | 53 | 0.0 | 0.0 | 0.00 | 0.12 | 0.12 | 91 | 1011.1 | |
| 20260510024536 | 54 | 0.0 | 0.0 | 0.00 | 0.12 | 0.12 | 90 | 1010.9 | |
| 20260510023042 | 54 | 0.0 | 0.0 | 0.00 | 0.12 | 0.12 | 90 | 1010.9 | |
| 20260510021634 | 54 | 0.0 | 0.0 | 0.00 | 0.12 | 0.12 | 88 | 1010.8 | |
| 20260510020038 | 54 | 0.0 | 0.0 | 0.00 | 0.12 | 0.12 | 88 | 1010.8 | |
| 20260510014548 | 55 | 0.0 | 0.0 | 0.00 | 0.12 | 0.12 | 86 | 1010.5 | |
| 20260510013036 | 55 | 0.0 | 0.0 | 0.00 | 0.12 | 0.12 | 85 | 1010.5 | |
| 20260510011541 | 55 | 0.0 | 0.0 | 0.00 | 0.12 | 0.12 | 85 | 1010.3 | |
| 20260510010050 | 56 | 0.0 | 0.0 | 0.00 | 0.12 | 0.12 | 84 | 1010.2 | |
| 20260510004542 | 57 | 0.0 | 0.0 | 0.00 | 0.12 | 0.12 | 84 | 1010.1 | |
| 20260510003042 | 57 | 0.0 | 0.0 | 0.00 | 0.12 | 0.12 | 84 | 1010.0 | |
| 20260510001537 | 57 | 0.0 | 0.0 | 0.00 | 0.12 | 0.12 | 83 | 1009.8 | |
| 20260510000037 | 58 | 0.0 | 0.0 | 0.00 | 0.12 | 0.12 | 82 | 1009.7 | |
| 20260509234542 | 58 | 0.0 | 0.0 | 0.00 | 0.12 | 0.12 | 81 | 1009.7 | |
| 20260509233041 | 59 | 0.0 | 0.0 | 0.00 | 0.12 | 0.12 | 80 | 1009.4 | |
| 20260509231544 | 60 | 0.0 | 0.0 | 0.00 | 0.12 | 0.12 | 79 | 1009.5 | |
| 20260509230046 | 60 | 0.0 | 0.0 | 0.00 | 0.12 | 0.12 | 78 | 1009.6 | |
| 20260509224540 | 61 | 0.0 | 0.0 | 0.00 | 0.12 | 0.12 | 77 | 1009.7 | |
| 20260509223038 | 61 | 0.0 | 0.0 | 0.00 | 0.12 | 0.12 | 77 | 1009.6 | |
| 20260509221544 | 61 | 0.0 | 0.0 | 0.00 | 0.12 | 0.12 | 78 | 1009.5 | |
| 20260509220043 | 61 | 0.0 | 0.0 | 0.00 | 0.12 | 0.12 | 77 | 1009.8 | |
| 20260509214542 | 61 | 0.0 | 0.0 | 0.00 | 0.12 | 0.12 | 77 | 1009.9 | |
| 20260509213048 | 60 | 0.0 | 0.0 | 0.00 | 0.12 | 0.12 | 81 | 1010.0 | |
| 20260509211541 | 59 | 0.0 | 0.0 | 0.00 | 0.12 | 0.12 | 80 | 1010.4 | |
| 20260509210049 | 59 | 0.0 | 0.0 | 0.00 | 0.12 | 0.12 | 82 | 1010.4 | |
| 20260509204544 | 58 | 0.0 | 0.0 | 0.00 | 0.12 | 0.12 | 81 | 1009.9 | |
| 20260509203041 | 59 | 0.0 | 0.0 | 0.00 | 0.12 | 0.12 | 82 | 1010.0 | |
| 20260509201541 | 59 | 0.0 | 0.0 | 0.00 | 0.12 | 0.12 | 81 | 1010.0 | |
| 20260509200047 | 60 | 0.0 | 0.0 | 0.00 | 0.12 | 0.12 | 79 | 1010.4 | |
| 20260509194553 | 61 | 0.0 | 0.0 | 0.00 | 0.12 | 0.12 | 79 | 1010.6 | |
| 20260509193036 | 61 | 0.0 | 0.0 | 0.00 | 0.12 | 0.12 | 81 | 1010.6 | |
| 20260509191535 | 59 | 0.0 | 0.0 | 0.00 | 0.12 | 0.12 | 84 | 1010.7 | |
| 20260509190046 | 58 | 0.0 | 0.0 | 0.00 | 0.12 | 0.12 | 84 | 1010.9 | |
| 20260509184541 | 58 | 0.0 | 0.0 | 0.00 | 0.12 | 0.12 | 89 | 1011.0 | |
| 20260509183042 | 56 | 0.0 | 0.0 | 0.00 | 0.12 | 0.12 | 89 | 1011.3 | |
| 20260509181542 | 55 | 0.0 | 0.0 | 0.00 | 0.12 | 0.12 | 89 | 1011.5 | |
| 20260509180052 | 54 | 0.0 | 0.0 | 0.00 | 0.12 | 0.12 | 89 | 1011.5 | |
| 20260509174546 | 54 | 0.0 | 0.0 | 0.00 | 0.12 | 0.12 | 89 | 1011.5 | |
| 20260509173055 | 54 | 0.0 | 0.0 | 0.00 | 0.12 | 0.12 | 87 | 1011.6 | |
| 20260509171543 | 54 | 0.0 | 0.0 | 0.00 | 0.12 | 0.12 | 87 | 1011.8 | |
| 20260509170042 | 54 | 0.0 | 0.0 | 0.01 | 0.12 | 0.12 | 87 | 1011.8 | |
| 20260509164540 | 54 | 0.0 | 0.0 | 0.02 | 0.12 | 0.12 | 88 | 1012.0 | |
| 20260509163037 | 53 | 0.0 | 0.0 | 0.06 | 0.12 | 0.12 | 88 | 1012.0 | |
| 20260509161553 | 53 | 0.0 | 0.0 | 0.10 | 0.12 | 0.12 | 88 | 1011.6 | |
| 20260509160042 | 53 | 0.0 | 0.0 | 0.11 | 0.11 | 0.11 | 88 | 1011.5 | |
| 20260509154546 | 53 | 0.0 | 0.0 | 0.10 | 0.10 | 0.10 | 85 | 1012.1 | |
| 20260509153053 | 54 | 0.0 | 0.0 | 0.06 | 0.06 | 0.06 | 83 | 1012.5 | |
| 20260509151537 | 54 | 0.0 | 0.0 | 0.02 | 0.02 | 0.02 | 82 | 1012.2 | |
| 20260509150037 | 55 | 0.0 | 0.0 | 0.00 | 0.00 | 0.00 | 80 | 1012.5 | |
| 20260509144546 | 56 | 0.0 | 0.0 | 0.00 | 0.00 | 0.00 | 77 | 1012.4 | |
| 20260509143043 | 56 | 0.0 | 0.0 | 0.00 | 0.00 | 0.00 | 74 | 1012.3 | |
| 20260509141543 | 57 | 0.0 | 0.0 | 0.00 | 0.00 | 0.00 | 72 | 1012.0 | |
| 20260509140054 | 56 | 0.0 | 0.0 | 0.00 | 0.00 | 0.00 | 74 | 1011.6 | |
| 20260509134541 | 56 | 0.0 | 0.0 | 0.00 | 0.00 | 0.00 | 76 | 1011.7 | |
| 20260509133041 | 55 | 0.0 | 0.0 | 0.00 | 0.00 | 0.00 | 76 | 1011.3 | |
| 20260509131541 | 55 | 0.0 | 0.0 | 0.00 | 0.00 | 0.00 | 77 | 1011.4 | |
| 20260509130037 | 55 | 0.0 | 0.0 | 0.00 | 0.00 | 0.00 | 78 | 1011.5 | |
| 20260509124549 | 55 | 0.0 | 0.0 | 0.00 | 0.00 | 0.00 | 79 | 1011.6 | |
| 20260509123042 | 55 | 0.0 | 0.0 | 0.00 | 0.00 | 0.00 | 79 | 1011.3 | |
| 20260509121541 | 54 | 0.0 | 0.0 | 0.00 | 0.00 | 0.00 | 81 | 1011.4 | |
| 20260509120038 | 53 | 0.0 | 0.0 | 0.00 | 0.00 | 0.00 | 84 | 1011.2 | |
| 20260509114541 | 52 | 0.0 | 0.0 | 0.00 | 0.00 | 0.00 | 85 | 1011.2 | |
| 20260509113041 | 52 | 0.0 | 0.0 | 0.00 | 0.00 | 0.00 | 85 | 1011.4 | |
| 20260509111541 | 52 | 0.0 | 0.0 | 0.00 | 0.00 | 0.00 | 84 | 1011.1 | |
| 20260509110040 | 52 | 0.0 | 0.0 | 0.00 | 0.00 | 0.00 | 83 | 1011.0 | |
| 20260509104536 | 52 | 0.0 | 0.0 | 0.00 | 0.00 | 0.00 | 84 | 1011.0 | |
| 20260509103038 | 51 | 0.0 | 0.0 | 0.00 | 0.00 | 0.00 | 84 | 1011.0 | |
| 20260509101542 | 51 | 0.0 | 0.0 | 0.00 | 0.00 | 0.00 | 85 | 1010.8 | |
| 20260509100041 | 51 | 0.0 | 0.0 | 0.00 | 0.00 | 0.00 | 84 | 1010.7 | |
| 20260509094553 | 52 | 0.0 | 0.0 | 0.00 | 0.00 | 0.00 | 84 | 1010.6 | |
| 20260509093042 | 52 | 0.0 | 0.0 | 0.00 | 0.00 | 0.00 | 84 | 1010.8 | |
| 20260509091547 | 52 | 0.0 | 0.0 | 0.00 | 0.00 | 0.00 | 84 | 1010.9 | |
| 20260509090053 | 52 | 0.0 | 0.0 | 0.00 | 0.00 | 0.00 | 84 | 1011.0 | |
| 20260509084542 | 52 | 0.0 | 0.0 | 0.00 | 0.00 | 0.00 | 84 | 1011.1 | |
| 20260509083043 | 52 | 0.0 | 0.0 | 0.00 | 0.00 | 0.00 | 83 | 1011.1 | |
| 20260509081541 | 52 | 0.0 | 0.0 | 0.00 | 0.00 | 0.00 | 83 | 1011.3 | |
| 20260509080047 | 52 | 0.0 | 0.0 | 0.00 | 0.00 | 0.00 | 82 | 1011.4 | |
| 20260509074602 | 52 | 0.0 | 0.0 | 0.00 | 0.00 | 0.00 | 82 | 1011.4 | |
| 20260509073100 | 51 | 0.0 | 0.0 | 0.00 | 0.00 | 0.00 | 81 | 1011.5 | |
| 20260509071548 | 50 | 0.0 | 0.0 | 0.00 | 0.00 | 0.00 | 80 | 1011.5 | |
| 20260509070047 | 50 | 0.0 | 0.0 | 0.00 | 0.00 | 0.00 | 79 | 1011.5 | |
| 20260509064541 | 51 | 0.0 | 0.0 | 0.00 | 0.00 | 0.00 | 78 | 1011.5 | |
| 20260509063054 | 52 | 0.0 | 0.0 | 0.00 | 0.00 | 0.00 | 76 | 1011.4 | |
| 20260509061538 | 52 | 0.0 | 0.0 | 0.00 | 0.00 | 0.00 | 76 | 1011.6 | |
| 20260509054542 | 53 | 0.0 | 0.0 | 0.00 | 0.00 | 0.00 | 72 | 1011.8 | |
| 20260509053053 | 53 | 0.0 | 0.0 | 0.00 | 0.00 | 0.00 | 72 | 1012.1 | |
| 20260509051538 | 55 | 0.0 | 0.0 | 0.00 | 0.00 | 0.00 | 67 | 1012.3 | |
| 20260509050041 | 56 | 0.0 | 0.0 | 0.00 | 0.00 | 0.00 | 64 | 1012.3 | |
| 20260509044537 | 56 | 0.0 | 0.0 | 0.00 | 0.00 | 0.00 | 62 | 1012.3 | |
| 20260509043051 | 55 | 0.0 | 0.0 | 0.00 | 0.00 | 0.00 | 65 | 1012.4 | |
| 20260509041542 | 55 | 0.0 | 0.0 | 0.00 | 0.00 | 0.00 | 69 | 1012.5 | |
| 20260509040059 | 54 | 0.0 | 0.0 | 0.00 | 0.00 | 0.00 | 72 | 1012.7 | |
| 20260509034541 | 54 | 0.0 | 0.0 | 0.00 | 0.00 | 0.00 | 73 | 1012.6 | |
| 20260509033103 | 54 | 0.0 | 0.0 | 0.00 | 0.00 | 0.00 | 72 | 1012.7 | |
| 20260509031537 | 55 | 0.0 | 0.0 | 0.00 | 0.00 | 0.00 | 72 | 1012.6 |